This is the latest recevied weather packets stored in our database for station/object AD8BW. If no packets are shown the sender has not sent any weather packets the latest 10 day(s).
| Time | Temp. | Humidity | Pressure | Rain* | Wind** | Luminosity | Snow |
|---|---|---|---|---|---|---|---|
| 1778027702 | 11.11° C | 47% | 1006.8 hPa | 0 mm | - | 0 W/m² | - |
| 1778027101 | 11.11° C | 47% | 1006.7 hPa | 0 mm | - | 0 W/m² | - |
| 1778026501 | 11.11° C | 48% | 1006.8 hPa | 0 mm | - | 0 W/m² | - |
| 1778025904 | 11.67° C | 47% | 1006.5 hPa | 0 mm | - | 0 W/m² | - |
| 1778025300 | 11.67° C | 49% | 1006.3 hPa | 0 mm | - | 7 W/m² | - |
| 1778024701 | 11.67° C | 50% | 1006.3 hPa | 0 mm | - | 16 W/m² | - |
| 1778024100 | 11.67° C | 51% | 1006.2 hPa | 0 mm | - | 19 W/m² | - |
| 1778023499 | 11.67° C | 56% | 1006 hPa | 0 mm | - | 25 W/m² | - |
| 1778022901 | 11.67° C | 58% | 1006 hPa | 0 mm | - | 26 W/m² | - |
| 1778022301 | 11.67° C | 59% | 1006 hPa | 0 mm | - | 40 W/m² | - |
| 1778021698 | 12.22° C | 58% | 1006.1 hPa | 0 mm | - | 42 W/m² | - |
| 1778021103 | 12.22° C | 58% | 1006.2 hPa | 0 mm | - | 44 W/m² | - |
| 1778020504 | 12.22° C | 57% | 1006.2 hPa | 0 mm | - | 46 W/m² | - |
| 1778019898 | 12.22° C | 58% | 1006.2 hPa | 0 mm | - | 51 W/m² | - |
| 1778019295 | 12.22° C | 57% | 1006.2 hPa | 0 mm | - | 51 W/m² | - |
| 1778018692 | 12.22° C | 57% | 1006.2 hPa | 0 mm | - | 72 W/m² | - |
| 1778018097 | 12.22° C | 57% | 1006.3 hPa | 0 mm | - | 56 W/m² | - |
| 1778017497 | 12.22° C | 57% | 1006.3 hPa | 0 mm | - | 58 W/m² | - |
| 1778016892 | 12.22° C | 57% | 1006.2 hPa | 0 mm | - | 62 W/m² | - |
| 1778016295 | 12.22° C | 56% | 1006.2 hPa | 0 mm | - | 56 W/m² | - |
| 1778015696 | 12.22° C | 59% | 1006.3 hPa | 0 mm | - | 53 W/m² | - |
| 1778015102 | 12.22° C | 62% | 1006.3 hPa | 0 mm | - | 51 W/m² | - |
| 1778014491 | 12.22° C | 65% | 1006.3 hPa | 0 mm | - | 39 W/m² | - |
| 1778013891 | 12.22° C | 64% | 1006.2 hPa | 0 mm | - | 40 W/m² | - |
| 1778013288 | 12.22° C | 64% | 1006.2 hPa | 0 mm | - | 54 W/m² | - |
* Rain latest hour (hover to see other rain measurements)
** Current wind speed in m/s (hover to see current wind gust speed)